Regional Weather Roundup
Issued by NWS Albany, NY

Home | Current Version | Previous Version | Text Only | Print | Product List | Glossary On
Versions: 1 2 3 4 5 6 7 8 9 10 11 12 13 14 15 16 17 18 19 20 21 22 23 24 25 26 27 28 29 30 31 32 33 34 35 36 37 38 39 40 41 42 43 44 45 46 47
000
ASUS41 KALY 250910
RWRALY

NEW YORK STATE HOURLY WEATHER ROUNDUP
NATIONAL WEATHER SERVICE ALBANY NY
400 AM EST THU DEC 25 2014

NOTE: "FAIR" INDICATES FEW OR NO CLOUDS BELOW 12,000 FEET WITH NO
SIGNIFICANT WEATHER AND/OR NO OBSTRUCTIONS TO VISIBILITY.

NYZ032-033-038>043-046>054-057>066-NYZ062>081-251000-
EAST


CITY           SKY/WX    TMP DP  RH WIND       PRES   REMARKS
ALBANY         CLOUDY    56  53  90 S12       29.42S
GLENS FALLS    FOG       39  37  92 NW5       29.41R VSB 1/4
POUGHKEEPSIE   LGT RAIN  61  56  83 SW8       29.48R
NEWBURGH       MOCLDY    61  57  88 W18       29.49F
MONTGOMERY     CLOUDY    60  53  77 W14G31    29.47F
WHITE PLAINS   FOG       57  56  96 CALM      29.49F VSB 1/2
ISLIP          CLOUDY    55  53  93 SW14G23   29.51F
NEW YORK CITY  CLOUDY    61  59  93 SW14G23   29.48F
CENTRAL PARK   CLOUDY    61  59  93 VRB5      29.50F
$$

NYZ005>009-017-018-044>046-055-056-251000-
CENTRAL


CITY           SKY/WX    TMP DP  RH WIND       PRES   REMARKS
FULTON         CLOUDY    48  32  53 SW21G45   29.48R
SYRACUSE       LGT RAIN  49  36  61 SW22G35   29.49R
ROME           LGT RAIN  50  41  71 SW14G23   29.47R
ELMIRA         CLOUDY    46  35  65 SW15      29.54R
BINGHAMTON     LGT RAIN  44  40  85 SW15      29.53R
MONTICELLO     CLOUDY    48  43  81 W23G37    29.55R
$$

NYZ026>034-041>043-251000-
NORTH


CITY           SKY/WX    TMP DP  RH WIND       PRES   REMARKS
WATERTOWN      CLOUDY    46  37  71 SW22G31   29.41R
FORT DRUM      NOT AVBL
MASSENA        LGT RAIN  47  41  80 SW26G45   29.31R
SARANAC LAKE   HVY RAIN  49  48  97 SW22G40   29.32R FOG
PLATTSBURGH    CLOUDY    45  45 100 SE8       29.26
$$

NYZ001>004-010>016-019>021-251000-
WEST


CITY           SKY/WX    TMP DP  RH WIND       PRES   REMARKS
NIAGARA FALLS  CLOUDY    40  34  79 SW30G49   29.48R WCI  28
BUFFALO        CLOUDY    40  34  79 SW32G49   29.49R WCI  28
DUNKIRK        CLOUDY    40  33  76 SW24G33   29.57R WCI  29
JAMESTOWN      CLOUDY    36  30  80 SW21G30   29.57R WCI  24
WELLSVILLE     CLOUDY    38  33  82 W14G26    29.54S WCI  30
ROCHESTER      CLOUDY    44  33  65 W33G53    29.48R
PENN YAN       CLOUDY    45  33  63 SW17G35   29.49R
$$

             KEY
       WCI = WIND CHILL INDEX
       VSB = VISIBILITY
       HX  = HEAT INDEX
$$



USA.gov is the U.S. government's official web portal to all federal, state and local government web resources and services.